FW3274 Weather Reports


Display with metric or nautical units.
time (UTC)temp
F
wind
direction
speed
MPH
gust
MPH
rain 1hr
in
rain 24hr
in
rain mn
in
humidity
%
barometer
mb
20260510204617 59 78 0.0 0.0 0.00 0.17 0.17 88 1008.8
20260510203058 59 78 0.0 0.0 0.00 0.17 0.17 88 1008.8
20260510201602 58 78 0.0 0.0 0.00 0.17 0.17 87 1008.8
20260510200058 59 78 0.0 0.0 0.00 0.17 0.17 87 1008.9
20260510194609 59 78 0.0 0.0 0.00 0.17 0.17 87 1009.0
20260510193104 59 78 0.0 0.0 0.00 0.17 0.17 87 1009.0
20260510191559 59 78 0.0 0.0 0.00 0.17 0.17 86 1009.0
20260510190107 59 78 0.0 0.0 0.00 0.17 0.17 86 1008.9
20260510184607 59 78 0.0 0.0 0.01 0.17 0.17 87 1008.7
20260510183109 59 78 0.0 0.0 0.01 0.17 0.17 87 1008.8
20260510181604 59 78 0.0 0.0 0.01 0.17 0.17 87 1008.9
20260510180052 59 78 0.0 0.0 0.02 0.17 0.17 87 1009.0
20260510174557 59 79 0.0 0.0 0.02 0.17 0.17 86 1009.1
20260510173050 59 79 0.0 0.0 0.02 0.17 0.17 86 1009.3
20260510171558 59 79 0.0 0.0 0.04 0.17 0.17 86 1009.2
20260510170049 59 79 0.0 0.0 0.06 0.16 0.16 85 1009.3
20260510164547 60 79 0.0 0.0 0.09 0.15 0.15 86 1009.3
20260510163051 60 80 0.0 0.0 0.10 0.14 0.14 86 1009.4
20260510161542 60 114 0.0 0.0 0.09 0.13 0.13 84 1009.4
20260510160043 61 90 0.0 0.0 0.08 0.09 0.09 84 1009.4
20260510154542 62 96 0.0 0.0 0.06 0.06 0.06 81 1009.6
20260510153043 63 103 0.0 0.0 0.04 0.04 0.04 84 1009.6
20260510151538 63 188 0.0 0.0 0.03 0.03 0.03 81 1009.4
20260510150041 64 191 0.0 0.0 0.02 0.02 0.02 77 1009.4
20260510144540 66 232 0.0 0.0 0.00 0.00 0.00 73 1009.3
20260510143035 67 211 0.0 0.0 0.00 0.00 0.00 68 1009.1
20260510141535 68 86 0.0 0.0 0.00 0.00 0.00 64 1009.2
20260510140034 69 96 0.0 0.0 0.00 0.00 0.00 62 1009.1
20260510134533 69 67 0.0 0.0 0.00 0.00 0.00 58 1009.3
20260510133032 70 87 0.0 0.0 0.00 0.00 0.00 58 1009.5
20260510131531 69 87 0.0 0.0 0.00 0.00 0.00 59 1009.5
20260510130030 69 88 0.0 0.0 0.00 0.00 0.00 59 1009.7
20260510124529 69 90 0.0 0.0 0.00 0.00 0.00 58 1009.6
20260510123027 69 69 0.0 0.0 0.00 0.00 0.00 58 1009.8
20260510121526 69 71 0.0 0.0 0.00 0.00 0.00 57 1009.9
20260510120025 68 98 0.0 0.0 0.00 0.00 0.00 56 1009.9
20260510114525 68 98 0.0 0.0 0.00 0.00 0.00 55 1010.1
20260510113034 69 70 0.0 0.0 0.00 0.00 0.00 54 1010.0
20260510111523 69 67 0.0 0.0 0.00 0.00 0.00 54 1010.1
20260510110036 69 66 0.0 0.0 0.00 0.00 0.00 56 1010.3
20260510104520 69 67 0.0 0.0 0.00 0.00 0.00 57 1010.5
20260510103019 69 77 0.0 0.0 0.00 0.00 0.00 58 1010.5
20260510101518 69 78 0.0 0.0 0.00 0.00 0.00 57 1010.5
20260510100019 69 94 0.0 0.0 0.00 0.00 0.00 57 1010.5
20260510094530 69 80 0.0 0.0 0.00 0.00 0.00 57 1010.6
20260510093017 69 67 0.0 0.0 0.00 0.00 0.00 58 1010.8
20260510091516 69 80 0.0 0.0 0.00 0.00 0.00 55 1010.7
20260510090016 68 78 0.0 0.0 0.00 0.00 0.00 57 1010.7
20260510084516 69 84 0.0 0.0 0.00 0.00 0.00 57 1010.7
20260510083016 69 94 0.0 0.0 0.00 0.00 0.00 56 1010.7
20260510081519 69 96 0.0 0.0 0.00 0.00 0.00 57 1010.9
20260510080035 70 78 0.0 0.0 0.00 0.00 0.00 55 1010.9
20260510074511 68 53 0.0 4.0 0.00 0.00 0.00 58 1010.8
20260510073012 68 116 2.0 7.0 0.00 0.00 0.00 56 1010.8
20260510071509 68 96 0.0 0.0 0.00 0.00 0.00 59 1010.8
20260510070008 67 54 0.0 0.0 0.00 0.00 0.00 59 1010.7
20260510064510 68 92 0.0 0.0 0.00 0.00 0.00 57 1010.6
20260510063004 67 101 0.0 0.0 0.00 0.00 0.00 60 1010.6
20260510061503 66 97 0.0 0.0 0.00 0.00 0.00 60 1010.6
20260510060101 65 50 0.0 0.0 0.00 0.00 0.00 63 1010.4
20260510054555 63 84 0.0 0.0 0.00 0.00 0.00 67 1010.6
20260510053055 61 39 0.0 0.0 0.00 0.00 0.00 69 1010.7
20260510051603 60 78 0.0 0.0 0.00 0.00 0.00 71 1010.7
20260510050059 60 78 0.0 0.0 0.00 0.00 0.00 72 1010.7
20260510044548 59 78 0.0 0.0 0.00 0.00 0.00 73 1010.8
20260510043048 58 78 0.0 0.0 0.00 0.00 0.00 75 1011.0
20260510041545 57 78 0.0 0.0 0.00 0.00 0.00 76 1011.1
20260510040045 57 78 0.0 0.0 0.00 0.00 0.00 76 1011.2
20260510034543 58 78 0.0 0.0 0.00 0.00 0.00 76 1011.2
20260510033053 58 78 0.0 0.0 0.00 0.00 0.00 76 1011.1
20260510031545 57 78 0.0 0.0 0.00 0.00 0.00 77 1011.2
20260510030041 58 78 0.0 0.0 0.00 0.00 0.00 78 1011.4
20260510024537 58 78 0.0 0.0 0.00 0.00 0.00 78 1011.5
20260510023035 58 78 0.0 0.0 0.00 0.00 0.00 77 1011.5
20260510021611 59 78 0.0 0.0 0.00 0.00 0.00 77 1011.5
20260510020032 59 78 0.0 0.0 0.00 0.00 0.00 77 1011.5
20260510014545 60 78 0.0 0.0 0.00 0.00 0.00 77 1011.7
20260510013031 60 78 0.0 0.0 0.00 0.00 0.00 76 1011.9
20260510011528 60 78 0.0 0.0 0.00 0.00 0.00 76 1011.9
20260510010035 60 78 0.0 0.0 0.00 0.00 0.00 76 1012.0
20260510004525 60 82 0.0 0.0 0.00 0.00 0.00 75 1012.1
20260510003025 60 82 0.0 0.0 0.00 0.00 0.00 74 1012.2
20260510001523 60 82 0.0 0.0 0.00 0.00 0.00 75 1012.2
20260510000022 60 82 0.0 0.0 0.00 0.00 0.00 75 1012.3
20260509234522 60 82 0.0 0.0 0.00 0.00 0.00 75 1012.3
20260509233017 60 82 0.0 0.0 0.00 0.00 0.00 74 1012.4
20260509231515 61 82 0.0 0.0 0.00 0.00 0.00 74 1012.5
20260509230023 61 82 0.0 0.0 0.00 0.00 0.00 74 1012.6
20260509224512 61 82 0.0 0.0 0.00 0.00 0.00 74 1012.5
20260509223011 61 82 0.0 0.0 0.00 0.00 0.00 73 1012.6
20260509221509 62 82 0.0 0.0 0.00 0.00 0.00 73 1012.6
20260509220008 62 82 0.0 0.0 0.00 0.00 0.00 71 1012.5
20260509214507 62 82 0.0 0.0 0.00 0.00 0.00 70 1012.4
20260509213010 63 82 0.0 0.0 0.00 0.00 0.00 70 1012.4
20260509211506 63 82 0.0 0.0 0.00 0.00 0.00 69 1012.4
20260509210006 63 82 0.0 0.0 0.00 0.00 0.00 69 1012.4